Weather in Akhmeta

Georgia     42°01′57″N   45°12′19″E
temp.,
°C
wind,
m/s
gust,
m/s
humid.,
%
clouds,
%
prec.,
mm/h
press.,
hPa
HPBL,
m
27 february, sat
sat2701:00−1wsw228090 0.0 102625
04:00−1wsw227955 0.0 102527
07:00−1wsw22770 0.0 102423
10:00+4nw11560 0.0 1022359
13:00+7ne21510 0.0 1020645
16:00+8ne21490 0.0 1017777
19:00+4wsw11640 0.0 101822
22:00+2wsw22660 0.0 101927
28 february, sun
sun2801:00+2wsw22670 0.0 101923
04:00+1wsw23690 0.0 101827
07:00+1wsw33700 0.0 101829
10:00+6wnw26537 0.0 1016702
13:00+9w494948 0.0 10141562
16:00+9w6105362 0.0 10141432
19:00+4sw312703 0.0 1015652
22:00+3wsw35773 0.0 1017183
1 march, mon
mon101:00+2wsw358138 0.0 1017174
04:00+3wsw397869 0.0 1018673
07:00+1wsw4876100 0.0 1020579
10:00+3w4962100 0.0 1022690
13:00+6w7114372 0.0 10221477
16:00+6w7104044 0.0 10221143
19:00+2wsw39610 0.0 1024578
22:000wsw237650 0.0 102795
2 march, tue
tue201:000wsw2377100 0.0 102892
04:00−1w2280100 0.0 102828
07:00−2wsw228446 0.0 102927
10:00+2nw116343 0.0 1028681
13:00+5ne23421 0.0 10271588
16:00+6se124347 0.2 10241604
19:00+2s115725 0.1 102559
22:000wsw226813 0.3 102630
3 march, wed
wed301:00−1wsw237958 0.0 1026154
04:00−1wsw257533 0.0 1024192
07:00−1w51272100 0.0 1023978
10:00+3wnw71452100 0.1 10221664
13:00+5w1017442 0.0 10202084
16:00+4w1219458 0.0 10191459
19:00+1w1018577 0.0 10211060
22:000wsw310783 0.0 1023652